TimeICT,TemperatureF,Dew PointF,Humidity,Sea Level PressureIn,VisibilityMPH,Wind Direction,Wind SpeedMPH,Gust SpeedMPH,PrecipitationIn,Events,Conditions,WindDirDegrees,DateUTC
7:00 AM,80.6,77.0,89,29.89,5.6,ENE,4.6,-,N/A,,Partly Cloudy,70,2012-10-15 00:00:00
7:30 AM,80.6,77.0,89,29.89,5.6,East,5.8,-,N/A,,Partly Cloudy,90,2012-10-15 00:30:00
8:00 AM,80.6,77.0,89,29.92,6.2,ENE,5.8,-,N/A,,Partly Cloudy,70,2012-10-15 01:00:00
8:30 AM,84.2,77.0,79,29.92,6.2,SE,5.8,-,N/A,,Partly Cloudy,130,2012-10-15 01:30:00
9:00 AM,84.2,77.0,79,29.92,6.2,SE,5.8,-,N/A,,Partly Cloudy,140,2012-10-15 02:00:00
9:30 AM,86.0,77.0,74,29.92,6.2,East,8.1,-,N/A,,Partly Cloudy,100,2012-10-15 02:30:00
10:00 AM,87.8,75.2,66,29.92,6.2,SSE,4.6,-,N/A,,Partly Cloudy,150,2012-10-15 03:00:00
10:30 AM,87.8,75.2,66,29.92,6.2,SSE,4.6,-,N/A,,Scattered Clouds,150,2012-10-15 03:30:00
11:00 AM,86.0,75.2,70,29.92,6.2,SSE,9.2,-,N/A,,Scattered Clouds,160,2012-10-15 04:00:00
11:30 AM,87.8,75.2,66,29.89,6.2,South,6.9,-,N/A,,Scattered Clouds,190,2012-10-15 04:30:00
12:00 PM,87.8,75.2,66,29.89,6.2,SSW,6.9,-,N/A,,Scattered Clouds,200,2012-10-15 05:00:00
12:30 PM,86.0,75.2,70,29.86,6.2,South,3.5,-,N/A,,Scattered Clouds,170,2012-10-15 05:30:00
1:00 PM,87.8,75.2,66,29.86,6.2,SSE,9.2,-,N/A,,Scattered Clouds,160,2012-10-15 06:00:00
1:30 PM,87.8,73.4,62,29.83,6.2,SSE,8.1,-,N/A,,Scattered Clouds,160,2012-10-15 06:30:00
2:00 PM,89.6,73.4,59,29.83,6.2,SSE,5.8,-,N/A,,Partly Cloudy,160,2012-10-15 07:00:00
2:30 PM,87.8,73.4,62,29.80,6.2,SSE,5.8,-,N/A,,Scattered Clouds,160,2012-10-15 07:30:00
3:00 PM,89.6,73.4,59,29.80,6.2,SSW,3.5,-,N/A,,Scattered Clouds,200,2012-10-15 08:00:00
3:30 PM,84.2,75.2,74,29.80,6.2,NNE,9.2,-,N/A,,Scattered Clouds,20,2012-10-15 08:30:00
4:00 PM,86.0,75.2,70,29.80,6.2,NNE,5.8,-,N/A,,Scattered Clouds,20,2012-10-15 09:00:00
4:30 PM,86.0,73.4,66,29.80,6.2,SW,5.8,-,N/A,,Scattered Clouds,230,2012-10-15 09:30:00
5:00 PM,87.8,73.4,62,29.80,6.2,Calm,Calm,-,N/A,,Scattered Clouds,0,2012-10-15 10:00:00
5:30 PM,86.0,75.2,70,29.80,6.2,Variable,2.3,-,N/A,,Scattered Clouds,0,2012-10-15 10:30:00
6:30 PM,84.2,75.2,74,29.83,5.6,Variable,2.3,-,N/A,,Scattered Clouds,0,2012-10-15 11:30:00
7:00 PM,82.4,75.2,79,29.83,5.6,Variable,2.3,-,N/A,,Scattered Clouds,0,2012-10-15 12:00:00
7:30 PM,82.4,75.2,79,29.83,5.6,Variable,2.3,-,N/A,,Scattered Clouds,0,2012-10-15 12:30:00
9:00 PM,82.4,77.0,84,29.86,5.6,East,4.6,-,N/A,,Scattered Clouds,100,2012-10-15 14:00:00
9:30 PM,82.4,77.0,84,29.86,5.6,Calm,Calm,-,N/A,,Scattered Clouds,0,2012-10-15 14:30:00
10:00 PM,82.4,77.0,84,29.89,5.6,Calm,Calm,-,N/A,,Scattered Clouds,0,2012-10-15 15:00:00
10:30 PM,80.6,77.0,89,29.89,5.6,SE,3.5,-,N/A,,Scattered Clouds,130,2012-10-15 15:30:00
11:00 PM,80.6,77.0,89,29.89,5.6,SE,3.5,-,N/A,,Scattered Clouds,130,2012-10-15 16:00:00